Tracking 31027 objects as of 19-Jul-2025
HD Live streaming from Space Station
objects crossing your sky now

CZ-4 DEB

Track CZ-4 DEB now!
10-day predictions


NORAD ID: 35378
Int'l Code: 2006-046L
Perigee: 511.7 km
Apogee: 622.9 km
Inclination: 97.8 °
Period: 95.9 minutes
Semi major axis: 6938 km
RCS: 0.0012 m2 (small)
Launch date: October 23, 2006
Source: People's Republic of China (PRC)
Launch site: Taiyaun Space Center, China (TSC)

Note: This is SATELLITE DEBRIS
Your satellite tracking list
Your tracking list is empty




NASA's NSSDC Master Catalog

Two Line Element Set (TLE):
1 35378U 06046L   25199.18350495  .00012140  00000-0  86417-3 0  9990
2 35378  97.8436 283.7245 0080107 306.9609  52.4299 15.02179609990183
Source of the keplerian elements: AFSPC